TimeEST,TemperatureF,Dew PointF,Humidity,Sea Level PressureIn,VisibilityMPH,Wind Direction,Wind SpeedMPH,Gust SpeedMPH,PrecipitationIn,Events,Conditions,WindDirDegrees,DateUTC
12:15 AM,37.4,30.2,75,29.96,10.0,SSE,9.2,-,0.00,,Clear,160,2013-12-29 05:15:00
12:35 AM,37.4,30.2,75,29.96,10.0,SSE,10.4,-,0.00,,Clear,160,2013-12-29 05:35:00
12:50 AM,37.4,30.2,75,29.94,10.0,SSE,10.4,-,0.00,,Clear,160,2013-12-29 05:50:00
1:15 AM,37.4,30.2,75,29.93,10.0,SSE,9.2,-,0.00,,Clear,160,2013-12-29 06:15:00
1:35 AM,37.4,30.2,75,29.93,10.0,SSE,8.1,-,0.00,,Clear,160,2013-12-29 06:35:00
1:50 AM,37.4,30.2,75,29.92,10.0,SSE,8.1,-,0.00,,Clear,150,2013-12-29 06:50:00
2:15 AM,37.4,30.2,75,29.91,10.0,SSE,9.2,-,0.00,,Clear,160,2013-12-29 07:15:00
2:35 AM,37.4,30.2,75,29.91,10.0,SSE,10.4,-,0.00,,Clear,160,2013-12-29 07:35:00
2:50 AM,37.4,28.4,70,29.91,10.0,SSE,9.2,-,0.00,,Clear,160,2013-12-29 07:50:00
3:15 AM,37.4,30.2,75,29.89,10.0,SSE,9.2,-,0.00,,Clear,160,2013-12-29 08:15:00
3:35 AM,37.4,28.4,70,29.89,10.0,SSE,9.2,-,0.00,,Clear,160,2013-12-29 08:35:00
3:50 AM,37.4,28.4,70,29.88,10.0,SSE,8.1,-,0.00,,Clear,160,2013-12-29 08:50:00
4:15 AM,37.4,28.4,70,29.87,10.0,SSE,6.9,-,0.00,,Clear,160,2013-12-29 09:15:00
4:35 AM,39.2,28.4,65,29.86,10.0,SSE,10.4,-,0.00,,Clear,160,2013-12-29 09:35:00
4:50 AM,39.2,28.4,65,29.85,10.0,SSE,11.5,-,0.00,,Clear,160,2013-12-29 09:50:00
5:15 AM,39.2,28.4,65,29.83,10.0,SSE,11.5,-,0.00,,Clear,150,2013-12-29 10:15:00
5:35 AM,39.2,30.2,70,29.81,10.0,SSE,12.7,-,0.00,,Clear,150,2013-12-29 10:35:00
5:50 AM,37.4,32.0,81,29.81,10.0,SSE,11.5,-,0.00,,Clear,150,2013-12-29 10:50:00
6:15 AM,37.4,32.0,81,29.82,10.0,SW,3.5,-,0.00,,Scattered Clouds,230,2013-12-29 11:15:00
6:35 AM,35.6,33.8,93,29.82,10.0,West,3.5,-,0.00,,Mostly Cloudy,280,2013-12-29 11:35:00
6:50 AM,35.6,33.8,93,29.83,10.0,Calm,Calm,-,0.00,,Mostly Cloudy,0,2013-12-29 11:50:00
7:15 AM,35.6,32.0,87,29.84,9.0,WSW,8.1,-,0.00,,Overcast,240,2013-12-29 12:15:00
7:35 AM,35.6,33.8,93,29.84,7.0,South,6.9,-,0.00,,Overcast,190,2013-12-29 12:35:00
7:50 AM,35.6,33.8,93,29.83,5.0,South,6.9,-,0.00,,Overcast,180,2013-12-29 12:50:00
8:15 AM,35.6,35.6,100,29.82,5.0,South,6.9,-,0.01,,Overcast,170,2013-12-29 13:15:00
8:35 AM,35.6,35.6,100,29.81,4.0,South,6.9,-,0.01,,Overcast,170,2013-12-29 13:35:00
8:50 AM,35.6,35.6,100,29.80,4.0,SSE,8.1,-,0.01,,Overcast,160,2013-12-29 13:50:00
9:15 AM,35.6,35.6,100,29.79,3.0,SSE,10.4,-,0.01,,Overcast,160,2013-12-29 14:15:00
9:35 AM,35.6,35.6,100,29.78,3.0,South,11.5,-,0.01,,Overcast,170,2013-12-29 14:35:00
9:50 AM,35.6,35.6,100,29.78,5.0,South,9.2,-,0.02,,Overcast,180,2013-12-29 14:50:00
10:15 AM,35.6,35.6,100,29.77,5.0,South,10.4,-,0.00,,Overcast,170,2013-12-29 15:15:00
10:35 AM,35.6,35.6,100,29.77,4.0,South,8.1,-,0.00,,Mostly Cloudy,170,2013-12-29 15:35:00
10:50 AM,35.6,35.6,100,29.77,4.0,South,6.9,-,0.01,,Mostly Cloudy,170,2013-12-29 15:50:00
11:15 AM,37.4,37.4,100,29.79,3.0,West,5.8,-,0.00,,Overcast,260,2013-12-29 16:15:00
11:35 AM,37.4,37.4,100,29.78,5.0,WSW,8.1,-,0.00,,Overcast,250,2013-12-29 16:35:00
11:50 AM,37.4,37.4,100,29.76,4.0,SSW,9.2,-,0.01,,Overcast,210,2013-12-29 16:50:00
12:15 PM,37.4,37.4,100,29.75,4.0,SSW,9.2,-,0.01,,Mostly Cloudy,210,2013-12-29 17:15:00
12:35 PM,37.4,37.4,100,29.74,5.0,SSW,10.4,-,0.01,,Overcast,200,2013-12-29 17:35:00
12:50 PM,37.4,37.4,100,29.73,7.0,SSW,11.5,-,0.01,,Overcast,210,2013-12-29 17:50:00
1:15 PM,37.4,37.4,100,29.73,9.0,SW,10.4,-,0.00,,Overcast,220,2013-12-29 18:15:00
1:35 PM,39.2,37.4,93,29.73,9.0,SW,11.5,-,0.00,,Overcast,220,2013-12-29 18:35:00
1:50 PM,39.2,37.4,93,29.73,9.0,WSW,13.8,18.4,0.00,,Overcast,240,2013-12-29 18:50:00
2:15 PM,39.2,37.4,93,29.74,9.0,SW,13.8,-,0.00,,Overcast,230,2013-12-29 19:15:00
2:35 PM,39.2,37.4,93,29.73,8.0,WSW,9.2,-,0.00,,Mostly Cloudy,240,2013-12-29 19:35:00
2:50 PM,39.2,37.4,93,29.73,9.0,SW,10.4,-,0.00,,Overcast,230,2013-12-29 19:50:00
3:15 PM,41.0,37.4,87,29.72,9.0,SW,12.7,-,0.00,,Mostly Cloudy,230,2013-12-29 20:15:00
3:35 PM,41.0,37.4,87,29.73,9.0,WSW,12.7,-,0.00,,Scattered Clouds,240,2013-12-29 20:35:00
3:50 PM,41.0,37.4,87,29.73,9.0,SW,13.8,-,0.00,,Mostly Cloudy,230,2013-12-29 20:50:00
4:15 PM,39.2,37.4,93,29.75,9.0,SW,11.5,-,0.00,,Overcast,230,2013-12-29 21:15:00
4:35 PM,39.2,37.4,93,29.76,9.0,WSW,9.2,-,0.00,,Overcast,240,2013-12-29 21:35:00
4:50 PM,39.2,35.6,87,29.77,10.0,West,10.4,-,0.00,,Overcast,270,2013-12-29 21:50:00
5:15 PM,37.4,33.8,87,29.78,10.0,West,17.3,24.2,0.00,,Overcast,260,2013-12-29 22:15:00
5:35 PM,37.4,33.8,87,29.79,10.0,West,17.3,21.9,0.00,,Overcast,260,2013-12-29 22:35:00
5:50 PM,35.6,32.0,87,29.80,10.0,West,16.1,24.2,0.00,,Overcast,270,2013-12-29 22:50:00
6:15 PM,35.6,32.0,87,29.82,10.0,West,12.7,-,0.00,,Overcast,270,2013-12-29 23:15:00
6:35 PM,35.6,32.0,87,29.83,8.0,West,13.8,21.9,0.00,,Mostly Cloudy,280,2013-12-29 23:35:00
6:50 PM,33.8,32.0,93,29.84,5.0,West,11.5,20.7,0.00,,Mostly Cloudy,270,2013-12-29 23:50:00
7:15 PM,33.8,33.8,100,29.85,4.0,WSW,13.8,-,0.00,,Overcast,250,2013-12-30 00:15:00
7:35 PM,33.8,33.8,100,29.86,5.0,West,16.1,21.9,0.00,,Overcast,260,2013-12-30 00:35:00
7:50 PM,33.8,33.8,100,29.86,4.0,West,16.1,21.9,0.00,,Overcast,270,2013-12-30 00:50:00
8:15 PM,33.8,33.8,100,29.88,7.0,WNW,13.8,-,0.00,,Overcast,290,2013-12-30 01:15:00
8:30 PM,32.0,32.0,100,29.89,10.0,West,11.5,-,0.00,,Overcast,270,2013-12-30 01:30:00
8:50 PM,32.0,32.0,100,29.90,10.0,West,12.7,20.7,0.00,,Overcast,270,2013-12-30 01:50:00
9:15 PM,32.0,30.2,93,29.90,10.0,West,12.7,18.4,0.00,,Overcast,280,2013-12-30 02:15:00
9:30 PM,32.0,30.2,93,29.91,10.0,WNW,12.7,24.2,0.00,,Overcast,290,2013-12-30 02:30:00
9:50 PM,32.0,28.4,87,29.91,10.0,WNW,13.8,-,0.00,,Overcast,290,2013-12-30 02:50:00
10:15 PM,32.0,28.4,87,29.93,10.0,WNW,13.8,19.6,0.00,,Overcast,290,2013-12-30 03:15:00
10:30 PM,30.2,28.4,93,29.93,10.0,NW,16.1,25.3,0.00,,Overcast,310,2013-12-30 03:30:00
10:50 PM,30.2,28.4,93,29.94,10.0,WNW,11.5,19.6,0.00,,Overcast,300,2013-12-30 03:50:00
11:15 PM,30.2,28.4,93,29.95,10.0,WNW,13.8,20.7,0.00,,Overcast,300,2013-12-30 04:15:00
11:30 PM,30.2,26.6,86,29.96,10.0,WNW,15.0,20.7,0.00,,Overcast,300,2013-12-30 04:30:00
11:50 PM,30.2,26.6,86,29.96,10.0,WNW,15.0,20.7,0.00,,Overcast,300,2013-12-30 04:50:00